#timestamp,LO_Frequency,Hit 
1501855215.3,286046752.2,N
1501855235.1,286046752.1,N
1501855255.9,286046752.5,N
1501855275.7,286046752.6,N
1501855295.5,286046752.3,N
1501855315.4,286046752.7,N
1501855335.2,286046753.0,N
1501855355.0,286046750.8,N
1501855355.9,286046750.8,N
1501855375.8,286046753.1,N
1501855395.6,286046753.2,N
1501855415.4,286046751.4,N
1501855435.3,286046748.6,N
1501855455.1,286046749.9,N
1501855456.0,286046749.9,N
1501855475.8,286046749.1,N
1501855495.6,286046747.3,N
1501855515.5,286046747.4,N
1501855535.3,286046747.5,N
1501855555.1,286046749.5,N
1501855575.9,286046749.8,N
1501855595.7,286046746.2,N
1501855615.5,286046748.3,N
1501855635.4,286046745.9,N
1501855655.2,286046746.1,N
1501855675.0,286046746.1,N
1501855675.9,286046746.1,N
1501855695.8,286046746.0,N
1501855715.6,286046745.5,N
1501855735.4,286046745.3,N
1501855755.2,286046748.4,N
1501855775.1,286046748.0,N
1501855776.0,286046748.0,N
1501855795.8,286046746.2,N
1501855815.6,286046741.4,N
1501855835.5,286046740.8,N
1501855855.3,286046742.4,N
1501855875.1,286046744.9,N
1501855895.9,286046746.4,N
1501855915.7,286046742.7,N
1501855935.5,286046744.6,N
1501855955.4,286046745.0,N
1501855975.2,286046746.8,N
1501855995.0,286046746.4,N
1501855995.9,286046746.4,N
1501856015.8,286046746.8,N
1501856035.6,286046746.5,N
1501856055.4,286046744.4,N
1501856075.2,286046744.6,N
1501856095.1,286046744.9,N
1501856096.0,286046744.9,N
1501856115.8,286046745.2,N
1501856135.6,286046742.4,N
1501856155.5,286046745.0,N
1501856175.3,286046745.5,N
1501856195.1,286046750.6,N
1501856215.9,286046748.8,N
1501856235.7,286046745.4,N
1501856255.5,286046746.8,N
1501856275.4,286046744.5,N
1501856295.2,286046744.5,N
1501856315.0,286046740.7,N
1501856315.9,286046740.7,N
1501856335.7,286046743.1,N
1501856355.6,286046741.1,N
1501856375.4,286046741.2,N
1501856395.2,286046740.9,N
1501856415.1,286046741.4,N
1501856416.0,286046741.4,N
1501856435.8,286046741.4,N
1501856455.6,286046741.6,N
1501856475.5,286046740.7,N
1501856495.3,286046743.5,N
1501856515.1,286046741.6,N
1501856535.9,286046739.5,N
1501856555.7,286046741.0,N
1501856575.5,286046741.9,N
1501856595.4,286046739.1,N
1501856615.2,286046739.9,N
1501856635.0,286046734.5,N
1501856635.9,286046734.5,N
1501856655.7,286046736.3,N
1501856675.6,286046738.0,N
1501856695.4,286046743.9,N
1501856715.2,286046747.8,N
1501856735.1,286046747.0,N
1501856736.0,286046747.0,N
1501856755.8,286046749.5,N
1501856775.6,286046748.0,N
1501856795.5,286046745.3,N
1501856815.3,286046747.9,N
1501856835.1,286046759.5,N
1501856855.9,286046758.5,N
1501856875.7,286046765.4,N
1501856895.5,286046766.0,N
1501856915.3,286046763.4,N
1501856935.2,286046765.2,N
1501856955.0,286046768.3,N
1501856955.9,286046768.3,N
1501856975.7,286046774.0,N
1501856995.6,286046770.0,N
1501857015.4,286046766.6,N
1501857035.2,286046764.7,N
1501857055.1,286046762.0,N
1501857056.0,286046762.0,N
1501857075.8,286046769.3,N
1501857095.6,286046774.9,N
1501857115.5,286046773.6,N
1501857135.3,286046772.4,N
1501857155.1,286046768.6,N
1501857175.9,286046766.5,N
1501857195.7,286046767.0,N
1501857215.5,286046769.2,N
1501857235.3,286046766.4,N
1501857255.2,286046765.3,N
1501857275.0,286046766.9,N
1501857275.9,286046766.9,N
1501857295.7,286046769.1,N
1501857315.6,286046765.8,N
1501857335.4,286046761.3,N
1501857355.2,286046766.0,N
1501857375.1,286046770.8,N
1501857376.0,286046770.8,N
1501857395.8,286046776.1,N
1501857415.6,286046774.6,N
1501857435.5,286046771.4,N
1501857455.3,286046776.1,N
1501857475.1,286046778.1,N
1501857495.8,286046770.9,N
1501857515.7,286046771.8,N
1501857535.5,286046770.3,N
1501857555.3,286046767.7,N
1501857575.2,286046770.1,N
1501857595.9,286046770.8,N
1501857615.7,286046772.2,N
1501857635.6,286046771.4,N
1501857655.4,286046768.2,N
1501857675.2,286046768.6,N
1501857695.1,286046767.9,N
1501857696.0,286046767.9,N
1501857715.8,286046771.6,N
1501857735.6,286046769.5,N
1501857755.4,286046773.1,N
1501857775.3,286046771.0,N
1501857795.1,286046780.2,N
1501857815.8,286046785.1,N
1501857835.7,286046785.2,N
1501857855.5,286046784.9,N
1501857875.3,286046792.1,N
1501857895.2,286046790.8,N
1501857915.9,286046789.6,N
1501857935.7,286046787.9,N
1501857955.6,286046787.5,N
1501857975.4,286046792.9,N
1501857995.2,286046795.6,N
1501858015.0,286046796.8,N
1501858015.9,286046796.8,N
1501858035.8,286046798.5,N
1501858055.6,286046805.5,N
1501858075.4,286046799.0,N
1501858095.3,286046793.8,N
1501858115.1,286046790.6,N
1501858135.8,286046796.6,N
1501858155.7,286046797.5,N
1501858175.5,286046797.2,N
1501858195.3,286046794.5,N
1501858215.2,286046794.2,N
1501858235.9,286046792.9,N
1501858255.7,286046790.6,N
1501858275.5,286046794.4,N
1501858295.4,286046790.4,N
1501858315.2,286046795.7,N
1501858335.0,286046794.1,N
1501858335.9,286046794.1,N
1501858355.8,286046794.0,N
1501858375.6,286046797.3,N
1501858395.4,286046794.4,N
1501858415.3,286046794.1,N
1501858435.1,286046792.2,N
1501858455.8,286046792.0,N
1501858475.7,286046790.1,N
1501858495.5,286046791.8,N
1501858515.3,286046794.8,N
1501858535.2,286046805.1,N
1501858555.9,286046808.4,N
1501858575.7,286046804.5,N
1501858595.5,286046803.3,N
1501858615.4,286046799.9,N
1501858635.2,286046796.0,N
1501858655.0,286046803.7,N
1501858655.9,286046803.7,N
1501858675.8,286046808.5,N
1501858695.6,286046800.3,N
1501858715.4,286046798.7,N
1501858735.3,286046797.9,N
1501858755.1,286046800.0,N
1501858756.0,286046800.0,N
1501858775.8,286046804.6,N
1501858795.7,286046810.5,N
